CW1767 Weather Reports


Display with metric or nautical units.
time (UTC)temp
F
wind
direction
speed
MPH
gust
MPH
rain 1hr
in
rain 24hr
in
rain mn
in
humidity
%
barometer
mb
20260831134542 80 9 0.0 3.0 0.00 0.00 0.00 88 1018.6
20260831133040 79 336 0.0 1.0 0.00 0.00 0.00 90 1018.6
20260831131534 78 163 0.0 0.0 0.00 0.00 0.00 92 1018.6
20260831130030 77 175 0.0 0.0 0.00 0.00 0.00 93 1018.6
20260831124528 76 175 0.0 1.0 0.00 0.00 0.00 94 1018.6
20260831123030 75 177 0.0 0.0 0.00 0.00 0.00 96 1018.5
20260831121529 74 177 0.0 0.0 0.00 0.00 0.00 96 1018.3
20260831120018 73 177 0.0 0.0 0.00 0.00 0.00 96 1018.2
20260831114520 73 177 0.0 0.0 0.00 0.00 0.00 95 1018.2
20260831113017 72 177 0.0 0.0 0.00 0.00 0.00 95 1018.2
20260831111516 71 177 0.0 0.0 0.00 0.00 0.00 95 1018.2
20260831110015 71 178 0.0 0.0 0.00 0.00 0.00 94 1018.1
20260831104521 71 177 0.0 0.0 0.00 0.00 0.00 95 1018.0
20260831103014 71 177 0.0 0.0 0.00 0.00 0.00 95 1017.8
20260831101514 71 177 0.0 0.0 0.00 0.00 0.00 94 1017.7
20260831100022 71 177 0.0 0.0 0.00 0.00 0.00 94 1017.5
20260831094514 71 177 0.0 0.0 0.00 0.00 0.00 94 1017.6
20260831093014 72 177 0.0 0.0 0.00 0.00 0.00 95 1017.5
20260831091511 72 177 0.0 0.0 0.00 0.00 0.00 94 1017.5
20260831090010 72 177 0.0 0.0 0.00 0.00 0.00 94 1017.5
20260831084509 72 177 0.0 0.0 0.00 0.00 0.00 95 1017.5
20260831083016 72 177 0.0 0.0 0.00 0.00 0.00 94 1017.4
20260831081508 72 177 0.0 0.0 0.00 0.00 0.00 94 1017.4
20260831080019 72 178 0.0 0.0 0.00 0.00 0.00 94 1017.5
20260831074506 72 177 0.0 0.0 0.00 0.00 0.00 94 1017.7
20260831073012 72 177 0.0 0.0 0.00 0.00 0.00 94 1017.8
20260831071504 72 177 0.0 0.0 0.00 0.00 0.00 94 1017.9
20260831070006 72 177 0.0 0.0 0.00 0.00 0.00 94 1018.0
20260831064503 72 177 0.0 0.0 0.00 0.00 0.00 94 1017.9
20260831063001 72 177 0.0 0.0 0.00 0.00 0.00 93 1017.9
20260831061600 73 177 0.0 0.0 0.00 0.00 0.00 93 1017.9
20260831060058 73 177 0.0 0.0 0.00 0.00 0.00 93 1017.9
20260831054558 73 177 0.0 0.0 0.00 0.00 0.00 93 1017.9
20260831053057 73 177 0.0 0.0 0.00 0.00 0.00 93 1018.1
20260831051556 74 177 0.0 0.0 0.00 0.00 0.00 93 1018.0
20260831050052 74 177 0.0 0.0 0.00 0.00 0.00 93 1018.0
20260831044554 74 177 0.0 0.0 0.00 0.00 0.00 93 1018.1
20260831043045 74 177 0.0 0.0 0.00 0.00 0.00 93 1018.2
20260831041548 74 177 0.0 0.0 0.00 0.00 0.00 93 1018.1
20260831040035 74 177 0.0 0.0 0.00 0.00 0.00 93 1018.1
20260831034534 74 177 0.0 0.0 0.00 0.00 0.00 93 1018.4
20260831033034 74 177 0.0 0.0 0.00 0.00 0.00 92 1018.4
20260831031534 74 177 0.0 0.0 0.00 0.00 0.00 92 1018.7
20260831030033 74 177 0.0 0.0 0.00 0.00 0.00 92 1018.9
20260831024534 74 177 0.0 0.0 0.00 0.00 0.00 91 1018.9
20260831023032 75 179 0.0 0.0 0.00 0.00 0.00 91 1018.9
20260831021537 75 182 0.0 1.0 0.00 0.00 0.00 91 1019.1
20260831020032 75 182 0.0 1.0 0.00 0.00 0.00 90 1019.0
20260831014536 75 179 0.0 0.0 0.00 0.00 0.00 89 1019.1
20260831013031 76 179 0.0 1.0 0.00 0.00 0.00 89 1019.2
20260831011535 76 179 0.0 0.0 0.00 0.00 0.00 88 1019.1
20260831010029 76 179 0.0 1.0 0.00 0.00 0.00 88 1019.0
20260831004529 77 179 0.0 0.0 0.00 0.00 0.00 87 1019.0
20260831003029 77 180 0.0 1.0 0.00 0.00 0.00 86 1019.0
20260831001528 78 179 0.0 1.0 0.00 0.00 0.00 85 1018.8
20260831000037 79 182 0.0 2.0 0.00 0.00 0.00 85 1018.8
20260830234525 79 180 0.0 2.0 0.00 0.00 0.00 84 1018.7
20260830233034 80 185 0.0 1.0 0.00 0.00 0.00 82 1018.8
20260830231530 82 170 0.0 2.0 0.00 0.00 0.00 79 1018.7
20260830230026 82 180 0.0 1.0 0.00 0.00 0.00 76 1018.6
20260830224524 82 181 0.0 2.0 0.00 0.00 0.00 75 1018.6
20260830223024 83 176 0.0 1.0 0.00 0.00 0.00 73 1018.4
20260830221524 83 180 0.0 3.0 0.00 0.00 0.00 72 1018.4
20260830220024 83 185 0.0 2.0 0.00 0.00 0.00 70 1018.4
20260830214531 84 184 0.0 2.0 0.00 0.00 0.00 69 1018.3
20260830213021 84 183 0.0 1.0 0.00 0.00 0.00 65 1018.5
20260830211521 84 188 0.0 2.0 0.00 0.00 0.00 60 1018.5
20260830210029 84 191 0.0 3.0 0.00 0.00 0.00 59 1018.4
20260830204527 85 194 0.0 2.0 0.00 0.00 0.00 61 1018.5
20260830203020 85 186 0.0 3.0 0.00 0.00 0.00 61 1018.5
20260830201519 86 167 0.0 3.0 0.00 0.00 0.00 55 1018.6
20260830200014 88 128 0.0 1.0 0.00 0.00 0.00 59 1018.8
20260830194519 88 180 0.0 3.0 0.00 0.00 0.00 55 1019.3
20260830193012 88 214 0.0 2.0 0.00 0.00 0.00 58 1019.3
20260830191517 88 175 0.0 2.0 0.00 0.00 0.00 58 1019.5
20260830190009 88 198 1.0 3.0 0.00 0.00 0.00 58 1019.7
20260830184508 88 194 0.0 2.0 0.00 0.00 0.00 58 1020.0
20260830183007 88 180 0.0 2.0 0.00 0.00 0.00 56 1020.3
20260830181504 88 189 0.0 2.0 0.00 0.00 0.00 60 1020.5
20260830180001 87 182 0.0 2.0 0.00 0.00 0.00 62 1020.5
20260830174600 87 213 0.0 2.0 0.00 0.00 0.00 66 1020.6
20260830173059 87 184 0.0 2.0 0.00 0.00 0.00 65 1020.8
20260830171607 87 244 0.0 1.0 0.00 0.00 0.00 67 1021.0
20260830170058 87 184 0.0 2.0 0.00 0.00 0.00 66 1021.1
20260830164602 86 229 0.0 2.0 0.00 0.00 0.00 68 1021.2
20260830163051 86 205 0.0 2.0 0.00 0.00 0.00 68 1021.3
20260830161549 85 178 0.0 2.0 0.00 0.00 0.00 69 1021.5
20260830160044 84 98 0.0 2.0 0.00 0.00 0.00 71 1021.5
20260830154541 82 187 0.0 1.0 0.00 0.00 0.00 73 1021.8
20260830153039 82 202 0.0 1.0 0.00 0.00 0.00 73 1021.8
20260830151540 80 173 0.0 2.0 0.00 0.00 0.00 76 1021.9
20260830150032 79 179 0.0 1.0 0.00 0.00 0.00 79 1021.9
20260830144528 78 144 0.0 1.0 0.00 0.00 0.00 81 1021.9
20260830143030 77 177 0.0 1.0 0.00 0.00 0.00 80 1021.9
20260830141534 76 178 0.0 1.0 0.00 0.00 0.00 84 1022.1
20260830140020 75 175 0.0 2.0 0.00 0.00 0.00 86 1022.2